• In Deutschland
  • Länderverzeichnis
  • Für 7 Tage
  • Wassertemperatur
  • Satellitenkarten
  • Wetterkarte
  • Widgets
  • user-avatar
    Anmelden

    Stündliche Wetter Tübingen

    Heute, 21 Juli, Samstag

    Zeit Temperatur Niederschläge Wind Luftdruck Luftfeuchtigkeit
    00:00 +20°C° 0 mm 1 m/S 723 mmHg 77%
    01:00 +18°C° 0 mm 2 m/S 722 mmHg 78%
    02:00 +18°C° 0 mm 2 m/S 722 mmHg 78%
    03:00 +17°C° 0 mm 2 m/S 722 mmHg 79%
    04:00 +17°C° 0 mm 2 m/S 722 mmHg 79%
    05:00 +18°C° 0 mm 2 m/S 723 mmHg 79%
    06:00 +18°C° 0 mm 2 m/S 723 mmHg 79%
    07:00 +19°C° 0 mm 2 m/S 723 mmHg 77%
    08:00 +20°C° 0,2 mm 2 m/S 723 mmHg 75%
    09:00 +21°C° 0,2 mm 2 m/S 723 mmHg 73%
    10:00 +23°C° 0,2 mm 1 m/S 723 mmHg 70%
    11:00 +23°C° 0,9 mm 1 m/S 723 mmHg 70%
    12:00 +24°C° 0,9 mm 1 m/S 723 mmHg 70%
    13:00 +24°C° 0,9 mm 1 m/S 723 mmHg 70%
    14:00 +24°C° 1,1 mm 2 m/S 723 mmHg 71%
    15:00 +24°C° 1,1 mm 2 m/S 723 mmHg 73%
    16:00 +24°C° 1,1 mm 2 m/S 723 mmHg 75%
    17:00 +23°C° 1,1 mm 2 m/S 723 mmHg 79%
    18:00 +21°C° 1,1 mm 2 m/S 723 mmHg 83%
    19:00 +20°C° 1,1 mm 2 m/S 723 mmHg 87%
    20:00 +19°C° 0,7 mm 2 m/S 723 mmHg 88%
    21:00 +19°C° 0,7 mm 2 m/S 723 mmHg 90%
    22:00 +19°C° 0,7 mm 1 m/S 723 mmHg 91%
    23:00 +18°C° 0,3 mm 2 m/S 723 mmHg 92%

    Morgen, 22 Juli, Sonntag

    Zeit Temperatur Niederschläge Wind Luftdruck Luftfeuchtigkeit
    00:00 +17°C° 0,3 mm 2 m/S 723 mmHg 92%
    01:00 +17°C° 0,3 mm 2 m/S 723 mmHg 93%
    02:00 +16°C° 0,1 mm 2 m/S 723 mmHg 94%
    03:00 +16°C° 0,1 mm 2 m/S 723 mmHg 94%
    04:00 +16°C° 0,1 mm 2 m/S 723 mmHg 95%
    05:00 +17°C° 0 mm 2 m/S 723 mmHg 93%
    06:00 +17°C° 0 mm 2 m/S 724 mmHg 91%
    07:00 +18°C° 0 mm 2 m/S 724 mmHg 90%
    08:00 +19°C° 0,1 mm 2 m/S 724 mmHg 83%
    09:00 +21°C° 0,1 mm 2 m/S 724 mmHg 75%
    10:00 +24°C° 0,1 mm 2 m/S 724 mmHg 68%
    11:00 +24°C° 0,5 mm 2 m/S 724 mmHg 68%
    12:00 +25°C° 0,5 mm 2 m/S 724 mmHg 67%
    13:00 +26°C° 0,5 mm 2 m/S 724 mmHg 66%
    14:00 +26°C° 1 mm 2 m/S 724 mmHg 68%
    15:00 +26°C° 1 mm 2 m/S 724 mmHg 69%
    16:00 +25°C° 1 mm 2 m/S 723 mmHg 71%
    17:00 +25°C° 1 mm 2 m/S 723 mmHg 75%
    18:00 +24°C° 1 mm 2 m/S 723 mmHg 79%
    19:00 +23°C° 1 mm 2 m/S 723 mmHg 82%
    20:00 +22°C° 0,7 mm 1 m/S 724 mmHg 85%
    21:00 +20°C° 0,7 mm 1 m/S 724 mmHg 87%
    22:00 +19°C° 0,7 mm 1 m/S 724 mmHg 90%
    23:00 +19°C° 0,1 mm 1 m/S 724 mmHg 91%

    übermorgen, 23 Juli, Montag

    Zeit Temperatur Niederschläge Wind Luftdruck Luftfeuchtigkeit
    00:00 +18°C° 0,1 mm 1 m/S 724 mmHg 92%
    01:00 +18°C° 0,1 mm 1 m/S 724 mmHg 93%
    02:00 +18°C° 0 mm 1 m/S 724 mmHg 93%
    03:00 +16°C° 0 mm 1 m/S 725 mmHg 94%
    04:00 +16°C° 0 mm 1 m/S 725 mmHg 94%
    05:00 +18°C° 0 mm 1 m/S 725 mmHg 93%
    06:00 +19°C° 0 mm 1 m/S 725 mmHg 91%
    07:00 +20°C° 0 mm 1 m/S 726 mmHg 89%
    08:00 +21°C° 0,1 mm 1 m/S 726 mmHg 82%
    09:00 +23°C° 0,1 mm 2 m/S 726 mmHg 75%
    10:00 +24°C° 0,1 mm 2 m/S 726 mmHg 67%
    11:00 +25°C° 0,5 mm 2 m/S 726 mmHg 64%
    12:00 +26°C° 0,5 mm 2 m/S 726 mmHg 61%
    13:00 +27°C° 0,5 mm 2 m/S 726 mmHg 58%
    14:00 +27°C° 0,4 mm 2 m/S 726 mmHg 57%
    15:00 +27°C° 0,4 mm 2 m/S 726 mmHg 56%
    16:00 +27°C° 0,4 mm 2 m/S 726 mmHg 56%
    17:00 +26°C° 0,1 mm 2 m/S 726 mmHg 61%
    18:00 +25°C° 0,1 mm 2 m/S 726 mmHg 66%
    19:00 +25°C° 0,1 mm 1 m/S 726 mmHg 71%
    20:00 +23°C° 0 mm 1 m/S 726 mmHg 75%
    21:00 +21°C° 0 mm 1 m/S 726 mmHg 79%
    22:00 +17°C° 0 mm 0 m/S 726 mmHg 84%
    23:00 +17°C° 0 mm 0 m/S 726 mmHg 85%

    24 Juli, Dienstag

    Zeit Temperatur Niederschläge Wind Luftdruck Luftfeuchtigkeit
    00:00 +17°C° 0 mm 0 m/S 726 mmHg 86%
    01:00 +16°C° 0 mm 0 m/S 725 mmHg 87%
    02:00 +16°C° 0 mm 0 m/S 725 mmHg 88%
    03:00 +16°C° 0 mm 0 m/S 725 mmHg 89%
    04:00 +15°C° 0 mm 0 m/S 725 mmHg 90%
    05:00 +17°C° 0 mm 0 m/S 725 mmHg 87%
    06:00 +20°C° 0 mm 1 m/S 725 mmHg 84%
    07:00 +21°C° 0 mm 1 m/S 725 mmHg 81%
    08:00 +23°C° 0 mm 1 m/S 725 mmHg 74%
    09:00 +25°C° 0 mm 2 m/S 725 mmHg 67%
    10:00 +26°C° 0 mm 2 m/S 725 mmHg 61%
    11:00 +27°C° 0 mm 2 m/S 725 mmHg 58%
    12:00 +28°C° 0 mm 2 m/S 725 mmHg 55%
    13:00 +29°C° 0 mm 2 m/S 724 mmHg 52%
    14:00 +29°C° 0 mm 2 m/S 724 mmHg 52%
    15:00 +29°C° 0 mm 2 m/S 724 mmHg 53%
    16:00 +29°C° 0 mm 2 m/S 724 mmHg 53%
    17:00 +28°C° 0,1 mm 2 m/S 724 mmHg 60%
    18:00 +27°C° 0,1 mm 2 m/S 724 mmHg 67%
    19:00 +26°C° 0,1 mm 1 m/S 724 mmHg 73%
    20:00 +25°C° 0,2 mm 1 m/S 724 mmHg 77%
    21:00 +23°C° 0,2 mm 1 m/S 724 mmHg 80%
    22:00 +22°C° 0,2 mm 1 m/S 724 mmHg 84%
    23:00 +21°C° 0,1 mm 1 m/S 724 mmHg 85%

    25 Juli, Mittwoch

    Zeit Temperatur Niederschläge Wind Luftdruck Luftfeuchtigkeit
    00:00 +21°C° 0,1 mm 1 m/S 724 mmHg 86%
    01:00 +20°C° 0,1 mm 1 m/S 724 mmHg 86%
    02:00 +18°C° 0 mm 0 m/S 724 mmHg 87%
    03:00 +18°C° 0 mm 0 m/S 724 mmHg 88%
    04:00 +17°C° 0 mm 0 m/S 724 mmHg 89%
    05:00 +18°C° 0 mm 0 m/S 725 mmHg 86%
    06:00 +19°C° 0 mm 0 m/S 725 mmHg 84%
    07:00 +21°C° 0 mm 0 m/S 725 mmHg 82%
    08:00 +22°C° 0,4 mm 0 m/S 725 mmHg 76%
    09:00 +26°C° 0,4 mm 1 m/S 725 mmHg 71%
    10:00 +27°C° 0,4 mm 1 m/S 725 mmHg 66%
    11:00 +28°C° 0,5 mm 1 m/S 725 mmHg 63%
    12:00 +28°C° 0,5 mm 1 m/S 725 mmHg 60%
    13:00 +29°C° 0,5 mm 1 m/S 725 mmHg 58%
    14:00 +29°C° 0,4 mm 1 m/S 725 mmHg 58%
    15:00 +29°C° 0,4 mm 1 m/S 725 mmHg 58%
    16:00 +29°C° 0,4 mm 1 m/S 725 mmHg 58%
    17:00 +28°C° 0,4 mm 1 m/S 725 mmHg 63%
    18:00 +27°C° 0,4 mm 1 m/S 725 mmHg 68%
    19:00 +26°C° 0,4 mm 1 m/S 725 mmHg 73%
    20:00 +25°C° 0,1 mm 1 m/S 725 mmHg 76%
    21:00 +23°C° 0,1 mm 1 m/S 725 mmHg 78%
    22:00 +22°C° 0,1 mm 1 m/S 725 mmHg 81%
    23:00 +22°C° 0 mm 1 m/S 725 mmHg 82%

    26 Juli, Donnerstag

    Zeit Temperatur Niederschläge Wind Luftdruck Luftfeuchtigkeit
    00:00 +21°C° 0 mm 1 m/S 725 mmHg 83%
    01:00 +19°C° 0 mm 0 m/S 725 mmHg 84%
    02:00 +18°C° 0 mm 0 m/S 725 mmHg 85%
    03:00 +18°C° 0 mm 0 m/S 725 mmHg 86%
    04:00 +18°C° 0 mm 0 m/S 725 mmHg 86%
    05:00 +19°C° 0 mm 0 m/S 725 mmHg 84%
    06:00 +20°C° 0 mm 0 m/S 725 mmHg 82%
    07:00 +21°C° 0 mm 0 m/S 726 mmHg 79%
    08:00 +24°C° 0 mm 1 m/S 726 mmHg 72%
    09:00 +26°C° 0 mm 1 m/S 726 mmHg 65%
    10:00 +28°C° 0 mm 2 m/S 726 mmHg 59%
    11:00 +29°C° 0,1 mm 2 m/S 726 mmHg 56%
    12:00 +29°C° 0,1 mm 2 m/S 726 mmHg 53%
    13:00 +30°C° 0,1 mm 3 m/S 725 mmHg 50%
    14:00 +30°C° 0 mm 3 m/S 725 mmHg 50%
    15:00 +30°C° 0 mm 3 m/S 725 mmHg 51%
    16:00 +30°C° 0 mm 3 m/S 725 mmHg 51%
    17:00 +29°C° 0 mm 3 m/S 725 mmHg 57%
    18:00 +28°C° 0 mm 2 m/S 725 mmHg 62%
    19:00 +27°C° 0 mm 2 m/S 725 mmHg 68%
    20:00 +25°C° 0 mm 2 m/S 725 mmHg 72%
    21:00 +23°C° 0 mm 1 m/S 725 mmHg 75%
    22:00 +22°C° 0 mm 1 m/S 726 mmHg 79%
    23:00 +21°C° 0 mm 1 m/S 726 mmHg 80%
    Mehr zeigen